EW1390 Weather Reports


time (UTC)temp
C
wind
direction
speed
KPH
gust
KPH
rain 1hr
cm
rain 24hr
cm
rain mn
cm
humidity
%
barometer
mb
20260506193033 19 232 0.0 4.8 0.00 0.00 0.00 67 1013.2
20260506191533 18 229 1.6 6.4 0.00 0.00 0.00 69 1013.3
20260506190029 18 40 0.0 9.7 0.00 0.00 0.00 69 1013.4
20260506184526 17 360 0.0 6.4 0.00 0.00 0.00 73 1013.6
20260506183025 17 316 3.2 6.4 0.00 0.00 0.00 73 1013.6
20260506181529 17 227 3.2 8.0 0.00 0.00 0.00 74 1013.6
20260506180026 17 234 1.6 8.0 0.00 0.00 0.00 77 1013.7
20260506174514 16 271 0.0 6.4 0.00 0.00 0.00 79 1013.8
20260506173010 15 341 0.0 8.0 0.00 0.00 0.00 81 1013.6
20260506171506 13 179 0.0 6.4 0.00 0.00 0.00 89 1013.7
20260506170003 12 256 0.0 3.2 0.00 0.00 0.00 95 1013.6
20260506164600 12 288 0.0 3.2 0.00 0.00 0.00 96 1013.7
20260506163103 11 24 0.0 4.8 0.00 0.00 0.00 96 1013.7
20260506161558 11 331 0.0 1.6 0.00 0.00 0.00 96 1013.7
20260506160104 10 331 0.0 0.0 0.00 0.00 0.00 96 1013.7
20260506154547 10 330 0.0 0.0 0.00 0.08 0.00 96 1013.7
20260506153044 8 330 0.0 0.0 0.00 0.08 0.00 96 1013.9
20260506151541 8 330 0.0 0.0 0.00 0.08 0.00 96 1014.1
20260506150040 7 330 0.0 0.0 0.00 0.08 0.00 96 1014.0
20260506144540 7 330 0.0 0.0 0.00 0.08 0.00 95 1014.1
20260506143038 6 330 0.0 0.0 0.00 0.08 0.00 95 1014.0
20260506141537 6 330 0.0 0.0 0.00 0.08 0.00 95 1013.9
20260506140042 6 330 0.0 0.0 0.00 0.08 0.00 95 1013.6
20260506134605 6 330 0.0 0.0 0.00 0.13 0.00 95 1013.5
20260506133032 6 330 0.0 0.0 0.00 0.13 0.00 95 1013.3
20260506131532 6 330 0.0 0.0 0.00 0.13 0.00 95 1013.3
20260506130032 6 330 0.0 0.0 0.00 0.13 0.00 95 1013.2
20260506124527 6 331 0.0 0.0 0.00 0.13 0.00 95 1013.0
20260506123026 6 330 0.0 0.0 0.00 0.13 0.00 94 1012.9
20260506121524 6 331 0.0 0.0 0.00 0.13 0.00 94 1012.9
20260506120022 6 330 0.0 0.0 0.00 0.13 0.00 94 1012.8
20260506114531 6 330 0.0 0.0 0.00 0.13 0.00 94 1012.8
20260506113019 6 330 0.0 0.0 0.00 0.13 0.00 94 1012.7
20260506111517 6 331 0.0 0.0 0.00 0.13 0.00 94 1012.7
20260506110017 7 331 0.0 0.0 0.00 0.13 0.00 94 1012.6
20260506104514 7 330 0.0 0.0 0.00 0.15 0.00 94 1012.6
20260506103021 7 330 0.0 0.0 0.00 0.15 0.00 94 1012.6
20260506101511 7 330 0.0 0.0 0.00 0.15 0.00 94 1012.4
20260506100009 7 330 0.0 0.0 0.00 0.15 0.00 94 1012.3
20260506094514 7 330 0.0 0.0 0.00 0.15 0.00 94 1012.2
20260506093006 8 331 0.0 0.0 0.00 0.15 0.00 94 1012.0
20260506091504 8 330 0.0 0.0 0.00 0.15 0.00 94 1012.0
20260506090005 8 330 0.0 0.0 0.00 0.15 0.00 94 1011.9
20260506084502 8 331 0.0 1.6 0.00 0.23 0.00 94 1011.8
20260506083004 8 331 0.0 3.2 0.00 0.23 0.00 94 1011.9
20260506081559 8 302 0.0 0.0 0.00 0.23 0.00 94 1012.0
20260506080103 8 302 0.0 0.0 0.00 0.23 0.00 94 1012.1
20260506073055 8 302 0.0 0.0 0.00 0.28 0.00 94 1012.6
20260506071553 8 302 0.0 0.0 0.00 0.28 0.00 93 1012.1
20260506061542 9 302 0.0 0.0 0.00 0.36 0.28 92 1011.2
20260506044538 10 302 0.0 0.0 0.00 0.36 0.28 91 1010.5
20260506043032 11 302 0.0 0.0 0.00 0.36 0.28 91 1010.3
20260506041537 11 302 0.0 0.0 0.00 0.36 0.28 91 1010.2
20260506040030 11 302 0.0 0.0 0.00 0.36 0.28 91 1010.2
20260506034528 11 302 0.0 0.0 0.00 0.36 0.28 91 1009.9
20260506033026 12 302 0.0 0.0 0.00 0.36 0.28 90 1009.6
20260506031529 12 302 0.0 0.0 0.00 0.36 0.28 89 1009.4
20260506030024 12 302 0.0 0.0 0.00 0.36 0.28 89 1009.2
20260506024535 12 302 0.0 0.0 0.00 0.38 0.28 89 1009.3
20260506023022 12 302 0.0 0.0 0.00 0.38 0.28 88 1009.3
20260506021520 12 302 0.0 1.6 0.00 0.38 0.28 86 1009.1
20260506020021 12 302 0.0 3.2 0.00 0.38 0.28 87 1009.0
20260506014522 12 302 0.0 1.6 0.00 0.38 0.28 87 1009.0
20260506013020 13 302 0.0 0.0 0.00 0.38 0.28 87 1009.0
20260506011541 12 302 0.0 3.2 0.00 0.38 0.28 86 1009.1
20260506010018 12 302 0.0 1.6 0.00 0.38 0.28 88 1009.0
20260506004515 12 303 0.0 3.2 0.00 0.38 0.28 88 1009.0
20260506003017 12 303 0.0 1.6 0.00 0.38 0.28 89 1009.0
20260506001512 12 303 0.0 1.6 0.00 0.38 0.28 90 1009.0
20260506000016 12 303 0.0 1.6 0.00 0.38 0.28 90 1009.0
20260505234529 12 303 0.0 3.2 0.00 0.38 0.28 90 1008.9
20260505233011 12 229 0.0 1.6 0.00 0.38 0.28 89 1008.8
20260505231510 12 229 0.0 0.0 0.00 0.38 0.28 89 1008.8
20260505230010 12 229 0.0 0.0 0.00 0.38 0.28 90 1008.7
20260505224509 12 229 0.0 4.8 0.00 0.38 0.28 90 1008.7
20260505223008 12 210 0.0 1.6 0.00 0.38 0.28 90 1008.8
20260505221507 12 210 0.0 0.0 0.00 0.38 0.28 91 1008.8
20260505220005 12 210 0.0 0.0 0.00 0.38 0.28 91 1008.9
20260505214509 12 210 0.0 1.6 0.00 0.48 0.28 91 1008.9
20260505213004 12 210 0.0 1.6 0.00 0.48 0.28 91 1009.0
20260505211503 11 210 0.0 1.6 0.00 0.48 0.28 90 1009.1
20260505210002 12 210 0.0 1.6 0.00 0.48 0.28 91 1009.0
20260505204501 12 210 0.0 4.8 0.00 0.48 0.28 92 1009.0
20260505203112 11 207 0.0 0.0 0.00 0.48 0.28 92 1008.9
20260505201558 11 207 0.0 3.2 0.00 0.48 0.28 92 1008.9
20260505200058 11 207 0.0 4.8 0.00 0.48 0.28 93 1009.0
20260505194617 11 207 0.0 0.0 0.00 0.51 0.28 94 1009.0